AFR47C LSZH-LFPG

Flight info

Callsign AFR47C
Flight time 0h 56m
Altitude 31000
Route VEBIT T10 LUMEL T14 MOROK DCT PENDU DCT JAVVU DCT GIVRI DCT TINIL
Aircraft A319/M-SDE3FGHIRWY/LB1

Departure

Time 2026-04-25 21:11
Airport Zürich Airport (LSZH)

Arrival

Time 2026-04-25 22:08
Airport Charles de Gaulle International Airport (LFPG)
Time Latitude Longitude Altitude Speed Heading
2026-04-25 20:40 47.45354 8.55648 1412 ft 0 kts
2026-04-25 21:00 47.45350 8.55647 1407 ft 2 kts
2026-04-25 21:01 47.45330 8.55645 1409 ft 3 kts
2026-04-25 21:01 47.45310 8.55645 1410 ft 3 kts 354°
2026-04-25 21:01 47.45291 8.55650 1408 ft 3 kts 340°
2026-04-25 21:01 47.45274 8.55663 1412 ft 3 kts 307°
2026-04-25 21:02 47.45268 8.55677 1408 ft 1 kts 276°
2026-04-25 21:02 47.45268 8.55678 1408 ft 0 kts 276°
2026-04-25 21:05 47.45269 8.55669 1409 ft 3 kts 276°
2026-04-25 21:05 47.45274 8.55615 1407 ft 6 kts 279°
2026-04-25 21:06 47.45281 8.55584 1407 ft 4 kts 307°
2026-04-25 21:06 47.45319 8.55547 1412 ft 8 kts 333°
2026-04-25 21:06 47.45379 8.55505 1411 ft 11 kts 334°
2026-04-25 21:06 47.45429 8.55471 1407 ft 13 kts 336°
2026-04-25 21:07 47.45555 8.55385 1402 ft 17 kts 334°
2026-04-25 21:07 47.45650 8.55340 1399 ft 12 kts 22°
2026-04-25 21:07 47.45668 8.55441 1401 ft 11 kts 93°
2026-04-25 21:07 47.45660 8.55545 1407 ft 10 kts 96°
2026-04-25 21:08 47.45653 8.55653 1405 ft 11 kts 96°
2026-04-25 21:08 47.45643 8.55797 1407 ft 17 kts 95°
2026-04-25 21:08 47.45628 8.56009 1410 ft 23 kts 96°
2026-04-25 21:08 47.45614 8.56206 1412 ft 13 kts 94°
2026-04-25 21:09 47.45764 8.56285 1419 ft 16 kts
2026-04-25 21:09 47.45890 8.56301 1414 ft 20 kts
2026-04-25 21:09 47.45997 8.56317 1412 ft 9 kts
2026-04-25 21:10 47.46016 8.56321 1411 ft 0 kts
2026-04-25 21:10 47.46020 8.56323 1411 ft 0 kts 12°
2026-04-25 21:10 47.46023 8.56324 1413 ft 2 kts 12°
2026-04-25 21:10 47.46096 8.56340 1412 ft 17 kts
2026-04-25 21:11 47.46219 8.56318 1412 ft 20 kts 332°
2026-04-25 21:11 47.46435 8.56025 1400 ft 83 kts 317°
2026-04-25 21:11 47.47056 8.55182 1388 ft 156 kts 318°
2026-04-25 21:11 47.47872 8.54087 2065 ft 158 kts 320°
2026-04-25 21:12 47.48735 8.53062 2852 ft 162 kts 324°
2026-04-25 21:12 47.49655 8.52051 3616 ft 170 kts 330°
2026-04-25 21:12 47.50731 8.51087 4171 ft 192 kts 330°
2026-04-25 21:12 47.51129 8.50738 4346 ft 200 kts 330°
2026-04-25 21:13 47.52983 8.48319 5326 ft 228 kts 300°
2026-04-25 21:13 47.53476 8.46097 6280 ft 228 kts 276°
2026-04-25 21:13 47.53345 8.43765 7214 ft 229 kts 253°
2026-04-25 21:13 47.52689 8.41596 8152 ft 232 kts 243°
2026-04-25 21:14 47.51699 8.39694 9016 ft 237 kts 223°
2026-04-25 21:14 47.50306 8.38364 9715 ft 253 kts 204°
2026-04-25 21:14 47.48515 8.37664 10203 ft 279 kts 193°
2026-04-25 21:14 47.46525 8.37036 10634 ft 304 kts 193°
2026-04-25 21:15 47.44371 8.36351 11020 ft 329 kts 194°
2026-04-25 21:15 47.42053 8.35592 11360 ft 353 kts 196°
2026-04-25 21:15 47.39745 8.34090 11601 ft 375 kts 216°
2026-04-25 21:15 47.37850 8.31343 11799 ft 393 kts 237°
2026-04-25 21:16 47.36525 8.27750 12322 ft 402 kts 244°
2026-04-25 21:16 47.35674 8.25302 12777 ft 406 kts 244°
2026-04-25 21:16 47.34366 8.21583 13497 ft 411 kts 244°
2026-04-25 21:16 47.33032 8.17838 14160 ft 416 kts 244°
2026-04-25 21:17 47.31671 8.14045 14763 ft 420 kts 244°
2026-04-25 21:17 47.30298 8.10225 15358 ft 423 kts 244°
2026-04-25 21:17 47.28958 8.06342 15908 ft 426 kts 249°
2026-04-25 21:17 47.28005 8.02217 16471 ft 426 kts 259°
2026-04-25 21:18 47.27537 7.97903 17016 ft 427 kts 268°
2026-04-25 21:18 47.27562 7.93536 17549 ft 426 kts 278°
2026-04-25 21:18 47.27960 7.89200 18082 ft 428 kts 281°
2026-04-25 21:18 47.28382 7.84845 18583 ft 431 kts 281°
2026-04-25 21:19 47.28798 7.80523 19018 ft 434 kts 281°
2026-04-25 21:19 47.29218 7.76105 19458 ft 436 kts 281°
2026-04-25 21:19 47.29619 7.71658 19875 ft 439 kts 278°
2026-04-25 21:19 47.29625 7.67136 20267 ft 445 kts 271°
2026-04-25 21:20 47.29525 7.62575 20683 ft 446 kts 271°
2026-04-25 21:20 47.29508 7.59541 20950 ft 447 kts 273°
2026-04-25 21:20 47.29626 7.53398 21449 ft 449 kts 275°
2026-04-25 21:20 47.29796 7.48794 21847 ft 451 kts 276°
2026-04-25 21:21 47.29986 7.44174 22201 ft 453 kts 275°
2026-04-25 21:21 47.30167 7.39527 22590 ft 454 kts 275°
2026-04-25 21:21 47.30325 7.34918 22921 ft 456 kts 275°
2026-04-25 21:21 47.30459 7.30196 23278 ft 457 kts 274°
2026-04-25 21:22 47.30574 7.25496 23608 ft 459 kts 274°
2026-04-25 21:22 47.30676 7.20841 23869 ft 461 kts 274°
2026-04-25 21:22 47.30774 7.16109 24135 ft 463 kts 274°
2026-04-25 21:22 47.30874 7.11352 24395 ft 464 kts 274°
2026-04-25 21:23 47.30982 7.06588 24681 ft 466 kts 274°
2026-04-25 21:23 47.31094 7.01812 24957 ft 466 kts 274°
2026-04-25 21:23 47.31205 6.97045 25363 ft 465 kts 273°
2026-04-25 21:23 47.31315 6.92290 25789 ft 463 kts 273°
2026-04-25 21:24 47.31421 6.87570 26209 ft 461 kts 273°
2026-04-25 21:24 47.31523 6.82856 26647 ft 460 kts 273°
2026-04-25 21:24 47.31625 6.78157 27108 ft 458 kts 273°
2026-04-25 21:24 47.31725 6.73474 27567 ft 456 kts 273°
2026-04-25 21:25 47.31821 6.68806 28031 ft 455 kts 272°
2026-04-25 21:25 47.31913 6.64142 28520 ft 454 kts 272°
2026-04-25 21:25 47.32002 6.59500 28991 ft 453 kts 272°
2026-04-25 21:25 47.32089 6.54866 29468 ft 452 kts 272°
2026-04-25 21:26 47.32173 6.50244 29969 ft 451 kts 272°
2026-04-25 21:26 47.32256 6.45635 30436 ft 449 kts 272°
2026-04-25 21:26 47.32339 6.41085 30870 ft 448 kts 272°
2026-04-25 21:26 47.32423 6.36430 31095 ft 448 kts 272°
2026-04-25 21:27 47.32576 6.27326 31147 ft 447 kts 272°
2026-04-25 21:27 47.32720 6.18178 31146 ft 447 kts 271°
2026-04-25 21:28 47.32856 6.09024 31149 ft 447 kts 271°
2026-04-25 21:28 47.32993 5.99857 31149 ft 447 kts 271°
2026-04-25 21:29 47.33123 5.90683 31146 ft 447 kts 271°
2026-04-25 21:29 47.33093 5.81526 31146 ft 447 kts 265°
2026-04-25 21:30 47.32358 5.72480 31140 ft 447 kts 264°
2026-04-25 21:30 47.31732 5.64855 31138 ft 447 kts 264°
2026-04-25 21:31 47.30863 5.54266 31136 ft 448 kts 264°
2026-04-25 21:31 47.30303 5.45137 31139 ft 447 kts 273°
2026-04-25 21:32 47.30746 5.40609 31144 ft 446 kts 285°
2026-04-25 21:32 47.31835 5.36336 31145 ft 447 kts 296°
2026-04-25 21:32 47.33497 5.32537 31145 ft 448 kts 308°
2026-04-25 21:32 47.35734 5.29249 31146 ft 450 kts 320°
2026-04-25 21:33 47.41078 5.24514 31142 ft 452 kts 329°
2026-04-25 21:33 47.46584 5.20012 31145 ft 452 kts 329°
2026-04-25 21:34 47.52087 5.15489 31154 ft 453 kts 329°
2026-04-25 21:34 47.57591 5.10931 31152 ft 453 kts 327°
2026-04-25 21:35 47.62563 5.05266 31153 ft 450 kts 318°
2026-04-25 21:35 47.67324 4.99287 31158 ft 451 kts 318°
2026-04-25 21:36 47.72117 4.93270 31163 ft 451 kts 318°
2026-04-25 21:36 47.76942 4.87190 31163 ft 452 kts 317°
2026-04-25 21:37 47.80917 4.82146 31052 ft 450 kts 317°
2026-04-25 21:37 47.84063 4.78139 29407 ft 454 kts 317°
2026-04-25 21:37 47.86488 4.75045 27890 ft 461 kts 317°
2026-04-25 21:38 47.88936 4.71917 26444 ft 466 kts 317°
2026-04-25 21:38 47.91405 4.68763 25300 ft 467 kts 317°
2026-04-25 21:38 47.93873 4.65613 24985 ft 468 kts 317°
2026-04-25 21:38 47.96352 4.62448 24745 ft 469 kts 317°
2026-04-25 21:39 47.98830 4.59278 24509 ft 469 kts 317°
2026-04-25 21:39 48.01311 4.56100 24277 ft 467 kts 317°
2026-04-25 21:39 48.03770 4.52942 24076 ft 466 kts 317°
2026-04-25 21:39 48.06226 4.49778 23831 ft 465 kts 317°
2026-04-25 21:40 48.08672 4.46626 23466 ft 463 kts 317°
2026-04-25 21:40 48.11106 4.43489 23143 ft 461 kts 317°
2026-04-25 21:40 48.13527 4.40369 22823 ft 459 kts 318°
2026-04-25 21:40 48.15936 4.37263 22500 ft 456 kts 318°
2026-04-25 21:41 48.18335 4.34168 22183 ft 454 kts 318°
2026-04-25 21:41 48.20719 4.31084 21861 ft 451 kts 318°
2026-04-25 21:41 48.23091 4.28005 21549 ft 450 kts 318°
2026-04-25 21:41 48.25443 4.24922 21225 ft 448 kts 316°
2026-04-25 21:42 48.27529 4.21551 20923 ft 445 kts 308°
2026-04-25 21:42 48.29493 4.17952 20632 ft 431 kts 308°
2026-04-25 21:42 48.31326 4.14603 20506 ft 410 kts 308°
2026-04-25 21:42 48.33106 4.11358 20212 ft 396 kts 308°
2026-04-25 21:43 48.34844 4.08189 19865 ft 390 kts 308°
2026-04-25 21:43 48.36565 4.05046 19621 ft 388 kts 309°
2026-04-25 21:43 48.38278 4.01917 19427 ft 386 kts 309°
2026-04-25 21:43 48.39979 3.98807 19099 ft 384 kts 309°
2026-04-25 21:44 48.41672 3.95706 18760 ft 382 kts 309°
2026-04-25 21:44 48.43352 3.92624 18400 ft 380 kts 309°
2026-04-25 21:44 48.46686 3.86508 17683 ft 376 kts 309°
2026-04-25 21:45 48.48343 3.83462 17341 ft 374 kts 309°
2026-04-25 21:45 48.49435 3.81453 17118 ft 373 kts 309°
2026-04-25 21:45 48.51621 3.77412 16666 ft 370 kts 309°
2026-04-25 21:45 48.53241 3.74410 16328 ft 369 kts 309°
2026-04-25 21:46 48.54727 3.71265 16053 ft 367 kts 302°
2026-04-25 21:46 48.56093 3.68072 15892 ft 366 kts 303°
2026-04-25 21:46 48.57480 3.64847 15708 ft 365 kts 303°
2026-04-25 21:46 48.58865 3.61626 15511 ft 364 kts 303°
2026-04-25 21:47 48.60243 3.58420 15336 ft 363 kts 303°
2026-04-25 21:47 48.61614 3.55220 15190 ft 361 kts 303°
2026-04-25 21:47 48.62976 3.52040 15204 ft 361 kts 303°
2026-04-25 21:47 48.64343 3.48850 15205 ft 361 kts 303°
2026-04-25 21:48 48.65711 3.45656 15204 ft 362 kts 303°
2026-04-25 21:48 48.67077 3.42459 15205 ft 362 kts 303°
2026-04-25 21:48 48.68445 3.39253 15206 ft 362 kts 302°
2026-04-25 21:48 48.69807 3.36055 15208 ft 362 kts 302°
2026-04-25 21:49 48.71170 3.32844 15204 ft 362 kts 302°
2026-04-25 21:49 48.72530 3.29636 15211 ft 362 kts 302°
2026-04-25 21:49 48.73892 3.26428 15211 ft 362 kts 302°
2026-04-25 21:49 48.75256 3.23216 15207 ft 362 kts 302°
2026-04-25 21:50 48.76599 3.20051 15211 ft 362 kts 302°
2026-04-25 21:50 48.77956 3.16844 15211 ft 362 kts 302°
2026-04-25 21:50 48.79316 3.13625 15216 ft 362 kts 302°
2026-04-25 21:50 48.80234 3.11450 15215 ft 362 kts 302°
2026-04-25 21:51 48.82026 3.07186 15214 ft 362 kts 302°
2026-04-25 21:51 48.83379 3.03961 15211 ft 363 kts 302°
2026-04-25 21:51 48.84819 3.00812 15212 ft 364 kts 309°
2026-04-25 21:51 48.86506 2.97993 15212 ft 353 kts 312°
2026-04-25 21:52 48.88124 2.95323 15214 ft 335 kts 312°
2026-04-25 21:52 48.89675 2.92759 15096 ft 323 kts 312°
2026-04-25 21:52 48.91164 2.90291 14963 ft 309 kts 311°
2026-04-25 21:52 48.92495 2.87801 14638 ft 300 kts 301°
2026-04-25 21:53 48.93317 2.84926 14148 ft 296 kts 284°
2026-04-25 21:53 48.93554 2.81820 13608 ft 296 kts 269°
2026-04-25 21:53 48.93394 2.78703 13034 ft 295 kts 266°
2026-04-25 21:53 48.93226 2.75598 12450 ft 294 kts 266°
2026-04-25 21:54 48.93061 2.72508 11912 ft 292 kts 266°
2026-04-25 21:54 48.92897 2.69440 11328 ft 290 kts 266°
2026-04-25 21:54 48.92736 2.66392 10719 ft 288 kts 266°
2026-04-25 21:54 48.92578 2.63424 10477 ft 273 kts 266°
2026-04-25 21:55 48.92416 2.60592 10231 ft 266 kts 266°
2026-04-25 21:55 48.92256 2.57786 10219 ft 268 kts 266°
2026-04-25 21:55 48.92087 2.54967 10221 ft 268 kts 266°
2026-04-25 21:55 48.91922 2.52147 10221 ft 268 kts 266°
2026-04-25 21:56 48.91750 2.49327 10221 ft 268 kts 266°
2026-04-25 21:56 48.91637 2.47464 10215 ft 268 kts 266°
2026-04-25 21:56 48.91412 2.43696 10221 ft 268 kts 266°
2026-04-25 21:56 48.91242 2.40877 10220 ft 267 kts 266°
2026-04-25 21:57 48.91078 2.38097 10220 ft 268 kts 266°
2026-04-25 21:57 48.90911 2.35274 10221 ft 268 kts 266°
2026-04-25 21:57 48.90742 2.32460 10218 ft 268 kts 266°
2026-04-25 21:57 48.90574 2.29642 10222 ft 267 kts 266°
2026-04-25 21:58 48.90403 2.26832 10220 ft 264 kts 266°
2026-04-25 21:58 48.90234 2.24134 10217 ft 249 kts 265°
2026-04-25 21:58 48.90072 2.21502 10221 ft 246 kts 266°
2026-04-25 21:58 48.89916 2.18954 10221 ft 245 kts 266°
2026-04-25 21:59 48.89758 2.16376 10221 ft 245 kts 266°
2026-04-25 21:59 48.89668 2.13804 10089 ft 242 kts 276°
2026-04-25 21:59 48.89906 2.11284 9660 ft 240 kts 282°
2026-04-25 22:00 48.91864 2.07585 8813 ft 233 kts 341°
2026-04-25 22:00 48.93450 2.07256 8375 ft 231 kts
2026-04-25 22:00 48.94481 2.07620 8091 ft 230 kts 22°
2026-04-25 22:00 48.95804 2.08957 7613 ft 229 kts 47°
2026-04-25 22:01 48.96633 2.11007 7106 ft 230 kts 71°
2026-04-25 22:01 48.96886 2.13404 6607 ft 230 kts 85°
2026-04-25 22:01 48.97023 2.15849 5971 ft 234 kts 84°
2026-04-25 22:01 48.97117 2.17488 5556 ft 237 kts 84°
2026-04-25 22:02 48.97304 2.20756 4983 ft 221 kts 84°
2026-04-25 22:02 48.97431 2.23000 4681 ft 204 kts 83°
2026-04-25 22:02 48.97547 2.25050 4414 ft 187 kts 83°
2026-04-25 22:02 48.97655 2.26951 4170 ft 173 kts 83°
2026-04-25 22:03 48.97755 2.28716 3950 ft 168 kts 83°
2026-04-25 22:03 48.97855 2.30476 3730 ft 166 kts 83°
2026-04-25 22:03 48.97953 2.32220 3504 ft 165 kts 83°
2026-04-25 22:03 48.98050 2.33949 3287 ft 164 kts 83°
2026-04-25 22:04 48.98146 2.35669 3064 ft 162 kts 83°
2026-04-25 22:04 48.98241 2.37384 2828 ft 162 kts 84°
2026-04-25 22:04 48.98335 2.39083 2630 ft 160 kts 83°
2026-04-25 22:04 48.98429 2.40770 2412 ft 159 kts 84°
2026-04-25 22:05 48.98532 2.42441 2191 ft 157 kts 82°
2026-04-25 22:05 48.98661 2.44080 2058 ft 154 kts 83°
2026-04-25 22:05 48.98738 2.45615 1823 ft 141 kts 84°
2026-04-25 22:05 48.98756 2.47066 1496 ft 134 kts 89°
2026-04-25 22:06 48.98825 2.48447 1321 ft 131 kts 82°
2026-04-25 22:06 48.98912 2.49826 1215 ft 130 kts 82°
2026-04-25 22:06 48.99006 2.51207 1048 ft 132 kts 82°
2026-04-25 22:06 48.99096 2.52603 933 ft 133 kts 84°
2026-04-25 22:07 48.99154 2.54013 736 ft 131 kts 84°
2026-04-25 22:07 48.99201 2.54932 599 ft 132 kts 84°
2026-04-25 22:07 48.99303 2.56793 393 ft 131 kts 83°
2026-04-25 22:07 48.99376 2.58052 355 ft 102 kts 86°
2026-04-25 22:08 48.99412 2.58844 352 ft 47 kts 86°
2026-04-25 22:08 48.99484 2.59309 355 ft 44 kts 65°
2026-04-25 22:08 48.99563 2.59578 356 ft 24 kts 64°
2026-04-25 22:08 48.99631 2.59691 359 ft 13 kts 12°
2026-04-25 22:09 48.99728 2.59681 358 ft 17 kts 352°
2026-04-25 22:09 48.99863 2.59663 354 ft 20 kts 355°
2026-04-25 22:09 48.99951 2.59655 354 ft 5 kts 356°
2026-04-25 22:09 48.99952 2.59654 354 ft 0 kts 356°
2026-04-25 22:12 48.99953 2.59654 354 ft 1 kts 356°
2026-04-25 22:12 48.99968 2.59653 354 ft 6 kts 356°
2026-04-25 22:13 49.00077 2.59642 354 ft 13 kts 356°
2026-04-25 22:13 49.00147 2.59632 354 ft 7 kts 353°
2026-04-25 22:13 49.00246 2.59619 355 ft 19 kts 355°
2026-04-25 22:13 49.00386 2.59602 355 ft 23 kts 355°
2026-04-25 22:14 49.00561 2.59581 355 ft 28 kts 356°
2026-04-25 22:14 49.00760 2.59556 355 ft 29 kts 355°
2026-04-25 22:14 49.00959 2.59533 355 ft 23 kts 352°
2026-04-25 22:14 49.00992 2.59432 355 ft 4 kts 274°
2026-04-25 22:15 49.00996 2.59357 355 ft 13 kts 272°
2026-04-25 22:15 49.00989 2.59176 355 ft 19 kts 264°
2026-04-25 22:15 49.00959 2.58972 355 ft 20 kts 255°
2026-04-25 22:16 49.00930 2.58516 355 ft 23 kts 265°
2026-04-25 22:16 49.00915 2.58248 355 ft 27 kts 265°
2026-04-25 22:16 49.00900 2.57959 355 ft 28 kts 266°
2026-04-25 22:16 49.00894 2.57838 363 ft 0 kts 266°
2026-04-25 22:18 49.00894 2.57833 362 ft 3 kts 266°
2026-04-25 22:18 49.00890 2.57778 357 ft 6 kts 259°
2026-04-25 22:19 49.00883 2.57748 355 ft 3 kts 242°
2026-04-25 22:19 49.00859 2.57729 357 ft 5 kts 190°
2026-04-25 22:19 49.00821 2.57726 356 ft 6 kts 195°
2026-04-25 22:19 49.00781 2.57691 361 ft 6 kts 219°
2026-04-25 22:20 49.00739 2.57664 358 ft 7 kts 188°
2026-04-25 22:20 49.00689 2.57655 357 ft 7 kts 220°
2026-04-25 22:20 49.00668 2.57599 356 ft 6 kts 248°
2026-04-25 22:20 49.00662 2.57575 362 ft 0 kts 251°